Location: Unspecified
(35.7250°N, 0.0000°E)
Time: 19:01:05
(UTC+00:00)

Tiros 1 - Pass Details

Date: 26 June 2019
Orbit: 630 x 664 km, 48.4° (Epoch: 18 July)

Event Time Altitude Azimuth Distance (km) Brightness Sun altitude
Rises 23:50:58 0° 292° (WNW) 2,953 10.8 -30.9°
Reaches altitude 10° 23:54:02 10° 312° (NW) 2,036 10.2 -30.9°
Maximum altitude 23:57:09 17° 354° (N) 1,598 9.9 -30.9°
Drops below altitude 10° 00:00:16 10° 36° (NE) 2,023 10.3 -30.9°
Sets 00:03:18 0° 57° (ENE) 2,926 10.9 -30.9°
